Flag for France Weather past 2 weeks in Brest, France

Now
43 °F

Partly cloudy.


Feels Like: 36 °F
Forecast: 43 / 49 °F
Wind: 13 mph from Northwest

Location: Brest Airport

Current Time: Jan 28, 2015 at 11:30:44 PM

Latest Report: Jan 28, 2015 at 11:00 PM


Visibility: N/A

Pressure: 29.83 "Hg

Humidity: 81%

Dew point: 37 °F

Location of BrestLocation

Historic Weather in Brest — Graph

°F

Brest temperature yesterday

Maximum temperature yesterday: 50 °F (at 1:30 PM)
Minimum temperature yesterday: 41 °F (at 4:30 AM)
Average temperature yesterday: 46 °F

Past Weeks' High & Low Weather Summary

 TemperatureHumidityPressure
High54 °F (Jan 15, 2:30 AM)100% (Jan 17, 6:30 AM)30.57 "Hg (Jan 17, 6:30 AM)
Low28 °F (Jan 17, 3:30 AM)46% (Jan 19, 4:30 PM)29.36 "Hg (Jan 15, 4:00 AM)
Average43 °F81%30.02 "Hg
* Reported Jan 13 10:00 PM — Jan 28 10:00 PM, Brest, Weather by CustomWeather, © 2014

Note: Actual official high and low records may vary slightly from our data, if they occured in-between our weather recording intervals... More about our weather records

Advertising

Brest weather history for previous 24 hours

 ConditionsComfort  
Time TempWeatherWind HumidityBarometerVisibility
10:00 PM
Jan 28
45 °FPassing clouds.12 mph81%29.86 "HgN/A
9:30 PM43 °FPassing clouds.10 mph87%29.86 "HgN/A
9:00 PM43 °FSprinkles. Passing clouds.13 mph81%29.89 "Hg5 mi
8:30 PM45 °FPassing clouds.12 mph76%29.89 "HgN/A
8:00 PM45 °FPartly cloudy.14 mph76%29.89 "HgN/A
7:30 PM45 °FPassing clouds.12 mph76%29.89 "HgN/A
7:00 PM45 °FPassing clouds.12 mph76%29.89 "HgN/A
6:30 PM45 °FPassing clouds.14 mph76%29.92 "HgN/A
6:00 PM46 °FPartly sunny.16 mph71%29.92 "HgN/A
5:30 PM46 °FBroken clouds.18 mph76%29.92 "Hg5 mi
5:00 PM46 °FBroken clouds.13 mph82%29.92 "Hg4 mi
4:30 PM46 °FLight rain. Broken clouds.20 mph82%29.92 "Hg3 mi
4:00 PM48 °FBroken clouds.20 mph76%29.92 "HgN/A
3:30 PM48 °FPartly sunny.18 mph82%29.92 "HgN/A
3:00 PM50 °FRain showers. Broken clouds.21 mph76%29.92 "Hg5 mi
2:30 PM52 °FBroken clouds.18 mph72%29.92 "HgN/A
2:00 PM52 °FBroken clouds.21 mph72%29.92 "HgN/A
1:30 PM52 °FBroken clouds.21 mph77%29.95 "HgN/A
1:00 PM52 °FBroken clouds.23 mph77%29.95 "HgN/A
12:30 PM52 °FBroken clouds.18 mph82%29.95 "Hg5 mi
12:00 PM52 °FDrizzle. Fog.20 mph94%29.95 "Hg1 mi
11:30 AM52 °FDrizzle. Fog.18 mph94%29.95 "Hg1 mi
10:30 AM52 °FDrizzle. Fog.17 mph94%29.98 "Hg1 mi
10:00 AM50 °FDrizzle. Fog.17 mph100%30.01 "Hg2 mi
9:30 AM50 °FDrizzle. Fog.16 mph100%30.01 "Hg2 mi
9:00 AM50 °FDrizzle. Fog.14 mph94%30.01 "Hg2 mi
8:36 AM50 °FLight rain. Fog.16 mph94%30.01 "Hg2 mi
8:00 AM50 °FPassing clouds.18 mph100%30.01 "Hg4 mi
7:30 AM50 °FDrizzle. Fog.15 mph100%30.04 "Hg1 mi
7:00 AM50 °FDrizzle. Fog.17 mph100%30.04 "Hg1 mi
6:30 AM50 °FDrizzle. Fog.20 mph94%30.07 "Hg1 mi
6:00 AM48 °FDrizzle. Fog.18 mph100%30.09 "Hg1 mi
5:30 AM48 °FDrizzle. Fog.17 mph100%30.09 "Hg1 mi
5:00 AM48 °FDrizzle. Fog.20 mph94%30.12 "Hg1 mi
4:30 AM48 °FDrizzle. Fog.17 mph94%30.15 "Hg2 mi
4:00 AM48 °FPassing clouds.18 mph87%30.15 "HgN/A
3:30 AM48 °FPassing clouds.17 mph87%30.18 "HgN/A
3:00 AM48 °FOvercast.15 mph76%30.21 "HgN/A
2:30 AM46 °FPassing clouds.14 mph76%30.21 "HgN/A
2:00 AM46 °FPassing clouds.12 mph76%30.24 "HgN/A
1:30 AM46 °FPartly cloudy.12 mph76%30.27 "HgN/A
1:00 AM46 °FPassing clouds.10 mph71%30.27 "HgN/A
12:30 AM46 °FPassing clouds.9 mph71%30.27 "HgN/A
12:00 AM46 °FPassing clouds.12 mph76%30.30 "HgN/A
11:30 PM
Jan 27
46 °FPartly cloudy.9 mph76%30.30 "HgN/A
11:00 PM46 °FPartly cloudy.5 mph71%30.30 "HgN/A
Weather by CustomWeather, © 2014

See weather overviewHow to use our weather pages